When you browse on this site, cookies collect data to enhance your experience and personalize the content and advertising you see.
Visit our Privacy Policy to learn more. By continuing to use the site, you agree to this use of cookies and data.
  • In Österreich
  • Länderverzeichnis
  • Für 7 Tage
  • Wassertemperatur
  • Satellitenkarten
  • Wetterkarte
  • News
  • Widgets
  • user-avatar
    Anmelden

    Stündliche Wetter Stamford

    Heute, 21 Juli, Sonntag

    Zeit Temperatur Niederschläge Wind Luftdruck Luftfeuchtigkeit
    00:00 +30°C° 0.3 mm 3 m/S 755 mmHg 74%
    01:00 +30°C° 0 mm 3 m/S 755 mmHg 76%
    02:00 +29°C° 0 mm 2 m/S 755 mmHg 77%
    03:00 +29°C° 0 mm 2 m/S 754 mmHg 78%
    04:00 +29°C° 0 mm 2 m/S 754 mmHg 79%
    05:00 +29°C° 0 mm 3 m/S 755 mmHg 75%
    06:00 +30°C° 0 mm 3 m/S 755 mmHg 71%
    07:00 +31°C° 0 mm 3 m/S 756 mmHg 64%
    08:00 +33°C° 0 mm 3 m/S 755 mmHg 59%
    09:00 +35°C° 0 mm 4 m/S 755 mmHg 54%
    10:00 +36°C° 0 mm 4 m/S 755 mmHg 49%
    11:00 +37°C° 0 mm 4 m/S 755 mmHg 45%
    12:00 +40°C° 0 mm 4 m/S 755 mmHg 40%
    13:00 +41°C° 0 mm 4 m/S 754 mmHg 36%
    14:00 +41°C° 0 mm 4 m/S 754 mmHg 35%
    15:00 +41°C° 0 mm 4 m/S 754 mmHg 35%
    16:00 +41°C° 0 mm 4 m/S 754 mmHg 34%
    17:00 +38°C° 0.5 mm 4 m/S 754 mmHg 44%
    18:00 +35°C° 0.5 mm 4 m/S 755 mmHg 54%
    19:00 +33°C° 0.5 mm 4 m/S 755 mmHg 63%
    20:00 +32°C° 0.2 mm 4 m/S 755 mmHg 65%
    21:00 +30°C° 0.2 mm 3 m/S 755 mmHg 67%
    22:00 +30°C° 0.2 mm 2 m/S 756 mmHg 69%
    23:00 +29°C° 0.4 mm 2 m/S 756 mmHg 71%

    Morgen, 22 Juli, Montag

    Zeit Temperatur Niederschläge Wind Luftdruck Luftfeuchtigkeit
    00:00 +28°C° 0.4 mm 2 m/S 756 mmHg 74%
    01:00 +27°C° 0.4 mm 1 m/S 756 mmHg 76%
    02:00 +27°C° 0.2 mm 1 m/S 756 mmHg 75%
    03:00 +26°C° 0.2 mm 2 m/S 756 mmHg 74%
    04:00 +25°C° 0.2 mm 2 m/S 756 mmHg 73%
    05:00 +25°C° 0.3 mm 2 m/S 756 mmHg 70%
    06:00 +26°C° 0.3 mm 1 m/S 756 mmHg 67%
    07:00 +26°C° 0.3 mm 1 m/S 757 mmHg 63%
    08:00 +27°C° 0.6 mm 1 m/S 756 mmHg 61%
    09:00 +29°C° 0.6 mm 1 m/S 756 mmHg 59%
    10:00 +30°C° 0.6 mm 1 m/S 756 mmHg 56%
    11:00 +31°C° 0.1 mm 2 m/S 755 mmHg 52%
    12:00 +34°C° 0.1 mm 2 m/S 755 mmHg 47%
    13:00 +35°C° 0.1 mm 2 m/S 755 mmHg 43%
    14:00 +34°C° 0 mm 3 m/S 754 mmHg 46%
    15:00 +33°C° 0 mm 3 m/S 754 mmHg 48%
    16:00 +33°C° 0 mm 4 m/S 753 mmHg 51%
    17:00 +29°C° 1.7 mm 4 m/S 753 mmHg 62%
    18:00 +27°C° 1.7 mm 4 m/S 754 mmHg 72%
    19:00 +23°C° 1.7 mm 5 m/S 754 mmHg 83%
    20:00 +23°C° 0.9 mm 4 m/S 754 mmHg 84%
    21:00 +24°C° 0.9 mm 3 m/S 754 mmHg 85%
    22:00 +23°C° 0.9 mm 2 m/S 754 mmHg 85%
    23:00 +23°C° 0.1 mm 2 m/S 754 mmHg 85%

    übermorgen, 23 Juli, Dienstag

    Zeit Temperatur Niederschläge Wind Luftdruck Luftfeuchtigkeit
    00:00 +21°C° 0.1 mm 3 m/S 754 mmHg 85%
    01:00 +21°C° 0.1 mm 4 m/S 754 mmHg 84%
    02:00 +20°C° 0.7 mm 4 m/S 754 mmHg 86%
    03:00 +20°C° 0.7 mm 4 m/S 754 mmHg 87%
    04:00 +20°C° 0.7 mm 4 m/S 754 mmHg 88%
    05:00 +20°C° 1.8 mm 4 m/S 754 mmHg 88%
    06:00 +20°C° 1.8 mm 4 m/S 754 mmHg 88%
    07:00 +20°C° 1.8 mm 3 m/S 755 mmHg 88%
    08:00 +21°C° 0.2 mm 3 m/S 755 mmHg 81%
    09:00 +24°C° 0.2 mm 3 m/S 755 mmHg 74%
    10:00 +25°C° 0.2 mm 3 m/S 755 mmHg 67%
    11:00 +26°C° 0.1 mm 2 m/S 756 mmHg 65%
    12:00 +26°C° 0.1 mm 2 m/S 756 mmHg 63%
    13:00 +27°C° 0.1 mm 1 m/S 756 mmHg 60%
    14:00 +27°C° 0.4 mm 1 m/S 756 mmHg 63%
    15:00 +27°C° 0.4 mm 1 m/S 756 mmHg 65%
    16:00 +27°C° 0.4 mm 1 m/S 756 mmHg 67%
    17:00 +26°C° 0.2 mm 1 m/S 756 mmHg 69%
    18:00 +25°C° 0.2 mm 1 m/S 756 mmHg 70%
    19:00 +25°C° 0.2 mm 1 m/S 757 mmHg 71%
    20:00 +24°C° 0.2 mm 1 m/S 757 mmHg 74%
    21:00 +23°C° 0.2 mm 1 m/S 757 mmHg 77%
    22:00 +23°C° 0.2 mm 1 m/S 757 mmHg 79%
    23:00 +23°C° 0.4 mm 1 m/S 758 mmHg 79%

    24 Juli, Mittwoch

    Zeit Temperatur Niederschläge Wind Luftdruck Luftfeuchtigkeit
    00:00 +21°C° 0.4 mm 2 m/S 758 mmHg 78%
    01:00 +21°C° 0.4 mm 2 m/S 758 mmHg 78%
    02:00 +21°C° 0 mm 2 m/S 758 mmHg 76%
    03:00 +20°C° 0 mm 3 m/S 758 mmHg 74%
    04:00 +19°C° 0 mm 4 m/S 758 mmHg 72%
    05:00 +20°C° 0 mm 4 m/S 759 mmHg 69%
    06:00 +20°C° 0 mm 4 m/S 759 mmHg 67%
    07:00 +21°C° 0 mm 4 m/S 760 mmHg 65%
    08:00 +24°C° 0 mm 3 m/S 760 mmHg 58%
    09:00 +25°C° 0 mm 3 m/S 760 mmHg 51%
    10:00 +27°C° 0 mm 3 m/S 760 mmHg 43%
    11:00 +28°C° 0 mm 2 m/S 760 mmHg 41%
    12:00 +29°C° 0 mm 2 m/S 760 mmHg 38%
    13:00 +30°C° 0 mm 1 m/S 760 mmHg 35%
    14:00 +30°C° 0 mm 1 m/S 760 mmHg 35%
    15:00 +30°C° 0 mm 1 m/S 759 mmHg 34%
    16:00 +30°C° 0 mm 1 m/S 759 mmHg 34%
    17:00 +28°C° 0 mm 2 m/S 760 mmHg 40%
    18:00 +27°C° 0 mm 2 m/S 760 mmHg 45%
    19:00 +26°C° 0 mm 2 m/S 760 mmHg 51%
    20:00 +25°C° 0 mm 1 m/S 760 mmHg 52%
    21:00 +24°C° 0 mm 1 m/S 761 mmHg 53%
    22:00 +23°C° 0 mm 1 m/S 761 mmHg 54%
    23:00 +23°C° 0 mm 1 m/S 761 mmHg 54%

    25 Juli, Donnerstag

    Zeit Temperatur Niederschläge Wind Luftdruck Luftfeuchtigkeit
    00:00 +23°C° 0 mm 1 m/S 761 mmHg 54%
    01:00 +23°C° 0 mm 2 m/S 761 mmHg 54%
    02:00 +21°C° 0 mm 2 m/S 762 mmHg 56%
    03:00 +21°C° 0 mm 2 m/S 762 mmHg 57%
    04:00 +20°C° 0 mm 2 m/S 762 mmHg 58%
    05:00 +21°C° 0 mm 2 m/S 762 mmHg 58%
    06:00 +23°C° 0 mm 2 m/S 763 mmHg 57%
    07:00 +24°C° 0 mm 2 m/S 763 mmHg 56%
    08:00 +26°C° 0 mm 1 m/S 763 mmHg 51%
    09:00 +28°C° 0 mm 1 m/S 763 mmHg 45%
    10:00 +30°C° 0 mm 1 m/S 764 mmHg 40%
    11:00 +31°C° 0 mm 1 m/S 763 mmHg 36%
    12:00 +32°C° 0 mm 1 m/S 763 mmHg 33%
    13:00 +32°C° 0 mm 1 m/S 763 mmHg 30%
    14:00 +32°C° 0 mm 1 m/S 763 mmHg 31%
    15:00 +32°C° 0 mm 1 m/S 763 mmHg 32%
    16:00 +32°C° 0 mm 1 m/S 763 mmHg 32%
    17:00 +30°C° 0 mm 2 m/S 763 mmHg 38%
    18:00 +29°C° 0 mm 3 m/S 764 mmHg 44%
    19:00 +27°C° 0 mm 3 m/S 764 mmHg 50%
    20:00 +26°C° 0 mm 3 m/S 764 mmHg 54%
    21:00 +26°C° 0 mm 3 m/S 765 mmHg 58%
    22:00 +25°C° 0 mm 3 m/S 765 mmHg 62%
    23:00 +25°C° 0 mm 3 m/S 765 mmHg 64%

    26 Juli, Freitag

    Zeit Temperatur Niederschläge Wind Luftdruck Luftfeuchtigkeit
    00:00 +25°C° 0 mm 2 m/S 765 mmHg 66%
    01:00 +24°C° 0 mm 2 m/S 765 mmHg 68%
    02:00 +24°C° 0 mm 2 m/S 765 mmHg 69%
    03:00 +24°C° 0 mm 1 m/S 765 mmHg 70%
    04:00 +23°C° 0 mm 1 m/S 765 mmHg 71%
    05:00 +24°C° 0 mm 1 m/S 766 mmHg 68%
    06:00 +25°C° 0 mm 1 m/S 766 mmHg 65%
    07:00 +26°C° 0 mm 1 m/S 766 mmHg 61%
    08:00 +28°C° 0 mm 1 m/S 766 mmHg 55%
    09:00 +30°C° 0 mm 1 m/S 766 mmHg 49%
    10:00 +32°C° 0 mm 1 m/S 767 mmHg 42%
    11:00 +33°C° 0 mm 1 m/S 766 mmHg 40%
    12:00 +34°C° 0 mm 1 m/S 766 mmHg 37%
    13:00 +34°C° 0 mm 1 m/S 766 mmHg 35%
    14:00 +35°C° 0 mm 2 m/S 766 mmHg 36%
    15:00 +34°C° 0 mm 2 m/S 766 mmHg 37%
    16:00 +33°C° 0 mm 3 m/S 766 mmHg 39%
    17:00 +31°C° 0 mm 3 m/S 766 mmHg 43%
    18:00 +29°C° 0 mm 3 m/S 766 mmHg 48%
    19:00 +28°C° 0 mm 4 m/S 766 mmHg 53%
    20:00 +27°C° 0 mm 3 m/S 767 mmHg 54%
    21:00 +26°C° 0 mm 3 m/S 767 mmHg 56%
    22:00 +26°C° 0 mm 3 m/S 767 mmHg 58%
    23:00 +25°C° 0 mm 2 m/S 767 mmHg 59%
    Mehr zeigen